time_stamp(utc),avg(mph),gust(mph),direction(deg),12m_air_temp(f),sonic_u(cm/s),sonic_v(cm/s),sonic_w(cm/s),pressure,2m_air_temp(f),pyranometer(W/m^2)
"2017-03-23 00:00:21+00",18.5,21.5,,32.1,-320,758,51,1027.92,31.4,0
"2017-03-23 00:05:21+00",15.0,17.0,,31.9,-216,621,31,1028.1,31.2,0
"2017-03-23 00:10:21+00",14.5,17.5,,31.8,-205,611,29,1028.33,31.1,0
"2017-03-23 00:15:21+00",13.4,16.4,,31.6,-192,552,38,1028.44,30.9,0
"2017-03-23 00:20:21+00",17.3,20.3,,31.7,-281,709,37,1028.56,30.7,0
"2017-03-23 00:25:21+00",14.4,16.4,,31.5,-257,579,29,1028.54,30.6,0
"2017-03-23 00:30:21+00",13.7,15.7,,31.4,-308,515,54,1028.63,30.5,0
"2017-03-23 00:35:21+00",16.1,19.1,,31.4,-341,629,38,1028.62,30.5,0
"2017-03-23 00:40:21+00",14.9,16.9,,31.3,-339,574,60,1028.82,30.5,0
"2017-03-23 00:45:21+00",17.7,22.7,,31.3,-339,707,67,1028.87,30.4,0
"2017-03-23 00:50:21+00",18.5,22.5,,31.3,-466,688,40,1029.02,30.4,0
"2017-03-23 00:55:21+00",21.9,23.9,,31.4,-468,833,58,1028.91,30.5,0
"2017-03-23 01:00:21+00",23.9,27.9,,31.2,-359,994,40,1029.07,30.4,0
"2017-03-23 01:05:21+00",27.4,32.4,,31.2,-373,1157,41,1029.09,30.4,0
"2017-03-23 01:10:21+00",24.1,27.1,,31,-465,967,64,1029.21,30.3,0
"2017-03-23 01:15:21+00",24.2,27.2,,30.9,-433,983,32,1029.27,30.1,0
"2017-03-23 01:20:21+00",21.6,24.6,,30.6,-285,902,46,1029.27,29.9,0
"2017-03-23 01:25:21+00",28.0,31.0,,30.7,-366,1190,47,1029.25,29.8,0
"2017-03-23 01:30:21+00",24.9,27.9,,30.6,-363,1032,52,1029.5,29.8,0
"2017-03-23 01:35:21+00",21.2,23.2,,30.4,-418,838,58,1029.66,29.7,0
"2017-03-23 01:40:21+00",26.0,28.0,,30.5,-495,1042,50,1029.77,29.7,0
"2017-03-23 01:45:21+00",18.5,20.5,,30.1,-374,747,70,1029.85,29.4,0
"2017-03-23 01:50:21+00",16.0,18.0,,29.9,-354,623,63,1030.01,29.2,0
"2017-03-23 01:55:21+00",16.8,20.8,,30,-305,686,14,1030.03,29.1,0
"2017-03-23 02:00:21+00",17.3,19.3,,29.8,-326,684,32,1030.26,28.9,0
"2017-03-23 02:05:21+00",17.6,22.6,,29.7,-310,705,39,1030.16,28.8,0
"2017-03-23 02:10:21+00",15.3,18.3,,29.4,-261,628,27,1030.26,28.5,0
"2017-03-23 02:15:21+00",14.0,18.0,,29.2,-194,584,18,1030.36,28.3,0
"2017-03-23 02:20:21+00",12.6,14.6,,28.9,-178,524,25,1030.48,28.1,0
"2017-03-23 02:25:21+00",11.8,13.8,,28.6,-172,487,30,1030.51,27.7,0
"2017-03-23 02:30:21+00",14.4,17.4,,28.6,-185,606,21,1030.52,27.5,0
"2017-03-23 02:35:21+00",16.4,17.4,,28.6,-230,673,22,1030.58,27.5,0
"2017-03-23 02:40:21+00",12.9,14.9,,28.5,-123,550,25,1030.8,27.5,0
"2017-03-23 02:45:21+00",18.2,22.2,,28.5,-303,746,47,1030.87,27.4,0
"2017-03-23 02:50:21+00",18.3,20.3,,28.4,-272,759,36,1031.01,27.5,0
"2017-03-23 02:55:21+00",17.2,20.2,,28.4,-261,711,43,1031.02,27.4,0
"2017-03-23 03:00:21+00",18.6,20.6,,28.2,-340,755,38,1031.07,27.3,0
"2017-03-23 03:05:21+00",17.4,20.4,,28.1,-282,714,38,1031.17,27.2,0
"2017-03-23 03:10:21+00",17.2,19.2,,28.1,-247,722,39,1031.22,27.2,0
"2017-03-23 03:15:21+00",15.2,17.2,,27.8,-261,613,28,1031.31,27,0
"2017-03-23 03:20:21+00",12.2,14.2,,27.6,-184,512,30,1031.41,26.8,0
"2017-03-23 03:25:21+00",13.2,16.2,,27.4,-196,549,35,1031.32,26.5,0
"2017-03-23 03:30:21+00",13.3,14.3,,27.5,-167,567,26,1031.57,26.5,0
"2017-03-23 03:35:21+00",16.7,17.7,,27.5,-242,693,34,1031.53,26.5,0
"2017-03-23 03:40:21+00",16.0,19.0,,27.4,-239,665,27,1031.45,26.3,0
"2017-03-23 03:45:21+00",14.6,16.6,,27.2,-253,605,37,1031.51,26.3,0
"2017-03-23 03:50:21+00",15.1,17.1,,27.1,-215,630,35,1031.56,26.2,0
"2017-03-23 03:55:21+00",13.6,16.6,,27,-206,560,35,1031.68,26.1,0
"2017-03-23 04:00:21+00",15.4,17.4,,26.9,-174,653,7,1031.81,25.9,0
"2017-03-23 04:05:21+00",14.9,17.9,,26.8,-122,640,18,1031.93,25.8,0
"2017-03-23 04:10:21+00",13.3,15.3,,26.6,-92,569,39,1031.93,25.7,0
"2017-03-23 04:15:21+00",11.7,12.7,,26.3,-160,494,24,1032.04,25.5,0
"2017-03-23 04:20:21+00",12.7,15.7,,26.3,-190,528,24,1032.06,25.3,0
"2017-03-23 04:25:21+00",14.6,17.6,,26.3,-229,604,24,1032.23,25.1,0
"2017-03-23 04:30:21+00",16.0,18.0,,26.4,-259,664,28,1032.09,25.3,0
"2017-03-23 04:35:21+00",14.6,16.6,,26.2,-238,607,53,1032.17,25.3,0
"2017-03-23 04:40:21+00",14.0,16.0,,26.1,-201,584,23,1032.2,25.2,0
"2017-03-23 04:45:21+00",16.1,18.1,,26,-203,680,13,1032.21,25.1,0
"2017-03-23 04:50:21+00",15.0,17.0,,26,-215,622,23,1032.28,25,0
"2017-03-23 04:55:21+00",12.7,14.7,,25.8,-165,527,13,1032.28,24.9,0
"2017-03-23 05:00:21+00",10.8,12.8,,25.6,-164,446,31,1032.36,24.7,0
"2017-03-23 05:05:21+00",12.5,14.5,,25.6,-135,532,17,1032.37,24.6,0
"2017-03-23 05:10:21+00",13.2,15.2,,25.5,-113,568,16,1032.32,24.5,0
"2017-03-23 05:15:21+00",11.9,12.9,,25.3,-138,501,24,1032.39,24.3,0
"2017-03-23 05:20:21+00",11.5,12.5,,25.2,-124,487,15,1032.46,24.2,0
"2017-03-23 05:25:21+00",12.3,14.3,,25.1,-173,505,26,1032.59,24,0
"2017-03-23 05:30:21+00",14.0,17.0,,25.1,-194,579,21,1032.63,23.9,0
"2017-03-23 05:35:21+00",13.9,14.9,,25.2,-204,574,35,1032.66,23.9,0
"2017-03-23 05:40:21+00",12.5,13.5,,25,-205,511,20,1032.7,23.9,0
"2017-03-23 05:45:21+00",11.4,13.4,,24.9,-189,459,17,1032.76,23.8,0
"2017-03-23 05:50:21+00",10.2,11.2,,24.8,-159,418,26,1032.9,23.6,0
"2017-03-23 05:55:21+00",10.5,11.5,,24.6,-108,447,9,1032.91,23.5,0
"2017-03-23 06:00:21+00",10.9,12.9,,24.4,-132,458,13,1032.87,23.3,0
"2017-03-23 06:05:21+00",8.9,9.9,,24.2,-111,369,19,1032.84,23.1,0
"2017-03-23 06:10:21+00",9.7,10.7,,24.1,-143,397,15,1032.98,22.9,0
"2017-03-23 06:15:21+00",10.3,12.3,,24.1,-172,414,13,1033.05,22.7,0
"2017-03-23 06:20:21+00",9.3,10.3,,24.2,-176,374,30,1033.12,22.7,0
"2017-03-23 06:25:21+00",10.9,11.9,,24.2,-163,443,13,1033.07,22.8,0
"2017-03-23 06:30:21+00",10.4,11.4,,24,-127,437,23,1033.05,22.8,0
"2017-03-23 06:35:21+00",9.1,11.1,,23.7,-131,378,21,1033.08,22.7,0
"2017-03-23 06:40:21+00",10.5,12.5,,23.7,-204,415,23,1033.17,22.5,0
"2017-03-23 06:45:21+00",10.3,11.3,,23.6,-189,404,25,1033.15,22.5,0
"2017-03-23 06:50:21+00",11.0,13.0,,23.7,-176,444,31,1033.2,22.5,0
"2017-03-23 06:55:21+00",11.2,13.2,,23.6,-205,434,28,1033.22,22.5,0
"2017-03-23 07:00:21+00",12.9,13.9,,23.6,-274,495,30,1033.09,22.5,0
"2017-03-23 07:05:21+00",13.0,14.0,,23.5,-298,480,30,1033.1,22.7,0
"2017-03-23 07:10:21+00",12.5,15.5,,23.4,-280,477,25,1033.15,22.7,0
"2017-03-23 07:15:21+00",11.2,13.2,,23.3,-219,443,22,1033.28,22.6,0
"2017-03-23 07:20:21+00",10.7,11.7,,23.2,-177,435,26,1033.21,22.5,0
"2017-03-23 07:25:21+00",11.8,14.8,,23.1,-171,489,14,1033.16,22.4,0
"2017-03-23 07:30:21+00",11.1,13.1,,23,-175,456,27,1033.3,22.3,0
"2017-03-23 07:35:21+00",12.4,14.4,,22.9,-220,490,29,1033.2,22.2,0
"2017-03-23 07:40:21+00",14.9,16.9,,23,-277,602,32,1033.29,22.2,0
"2017-03-23 07:45:21+00",14.0,17.0,,23,-214,578,26,1033.31,22.2,0
"2017-03-23 07:50:21+00",15.9,16.9,,23,-229,662,18,1033.26,22.3,0
"2017-03-23 07:55:21+00",12.6,14.6,,23,-153,529,19,1033.48,22.3,0
"2017-03-23 08:00:21+00",13.3,15.3,,22.9,-158,561,30,1033.56,22.3,0
"2017-03-23 08:05:21+00",12.6,13.6,,22.9,-104,535,11,1033.52,22.2,0
"2017-03-23 08:10:21+00",11.1,13.1,,22.8,-124,467,35,1033.61,22.1,0
"2017-03-23 08:15:21+00",12.7,13.7,,22.7,-137,534,9,1033.63,22,0
"2017-03-23 08:20:21+00",11.7,12.7,,22.7,-109,495,19,1033.74,21.9,0
"2017-03-23 08:25:21+00",11.7,14.7,,22.8,-140,501,25,1033.77,22,0
"2017-03-23 08:30:21+00",12.1,13.1,,22.7,-187,493,25,1033.91,22,0
"2017-03-23 08:35:21+00",10.7,12.7,,22.7,-158,444,30,1033.98,21.9,0
"2017-03-23 08:40:21+00",10.9,11.9,,22.7,-129,454,26,1033.97,21.9,0
"2017-03-23 08:45:21+00",12.2,14.2,,22.6,-138,515,14,1033.98,21.8,0
"2017-03-23 08:50:21+00",10.6,12.6,,22.5,-139,439,35,1034.01,21.8,0
"2017-03-23 08:55:21+00",11.2,12.2,,22.3,-167,456,12,1034.16,21.6,0
"2017-03-23 09:00:21+00",8.3,10.3,,22.2,-122,335,30,1034.36,21.5,0
"2017-03-23 09:05:21+00",9.0,10.0,,22.3,-202,330,26,1034.34,21.4,0
"2017-03-23 09:10:21+00",11.2,12.2,,22.2,-250,426,23,1034.5,21.4,0
"2017-03-23 09:15:21+00",11.8,14.8,,22.1,-255,453,26,1034.49,21.4,0
"2017-03-23 09:20:21+00",11.1,12.1,,22.3,-249,430,29,1034.72,21.5,0
"2017-03-23 09:25:21+00",12.0,14.0,,22.3,-243,469,27,1034.68,21.5,0
"2017-03-23 09:30:21+00",12.2,14.2,,22.3,-274,472,32,1034.72,21.6,0
"2017-03-23 09:35:21+00",10.0,11.0,,22.2,-198,393,39,1034.79,21.6,0
"2017-03-23 09:40:21+00",11.7,12.7,,22.1,-244,455,16,1034.88,21.5,0
"2017-03-23 09:45:21+00",11.1,12.1,,22.1,-217,437,37,1034.95,21.5,0
"2017-03-23 09:50:21+00",11.9,14.9,,22.1,-250,460,29,1034.97,21.5,0
"2017-03-23 09:55:21+00",12.7,14.7,,22,-273,491,24,1034.99,21.5,0
"2017-03-23 10:00:21+00",11.7,13.7,,21.9,-249,446,30,1035.08,21.4,0
"2017-03-23 10:05:21+00",11.6,12.6,,21.9,-242,445,24,1035.05,21.4,0
"2017-03-23 10:10:21+00",10.8,11.8,,21.9,-215,411,36,1035.19,21.3,0
"2017-03-23 10:15:21+00",11.6,13.6,,21.9,-241,453,28,1035.36,21.3,0
"2017-03-23 10:20:21+00",10.7,12.7,,21.8,-244,404,19,1035.41,21.2,0
"2017-03-23 10:25:21+00",10.1,11.1,,21.7,-212,383,18,1035.52,21.1,0
"2017-03-23 10:30:21+00",11.2,14.2,,21.7,-260,421,30,1035.62,21.1,0
"2017-03-23 10:35:21+00",11.8,13.8,,21.8,-255,453,25,1035.68,21.1,0
"2017-03-23 10:40:21+00",12.4,14.4,,22,-270,488,21,1035.69,21.1,0
"2017-03-23 10:45:21+00",12.4,14.4,,22.1,-268,484,24,1035.67,21.2,0
"2017-03-23 10:50:21+00",11.9,13.9,,22.1,-254,457,39,1035.8,21.3,0
"2017-03-23 10:55:21+00",12.7,15.7,,22.2,-276,482,36,1035.8,21.4,0
"2017-03-23 11:00:21+00",13.7,15.7,,22.4,-319,532,36,1035.91,21.6,0
"2017-03-23 11:05:21+00",13.5,14.5,,22.3,-327,495,48,1035.91,21.8,0
"2017-03-23 11:10:21+00",14.6,16.6,,22.5,-387,516,27,1035.94,21.9,0
"2017-03-23 11:15:21+00",14.5,16.5,,22.6,-370,541,38,1035.93,22.1,0
"2017-03-23 11:20:21+00",12.5,14.5,,22.5,-324,454,27,1035.98,22.2,0
"2017-03-23 11:25:21+00",12.9,15.9,,22.4,-308,483,41,1036.08,22.2,0.3
"2017-03-23 11:30:21+00",13.1,15.1,,22.5,-328,475,31,1036.21,22.3,11.1
"2017-03-23 11:35:21+00",13.5,15.5,,22.6,-317,504,43,1036.27,22.6,15.3
"2017-03-23 11:40:21+00",14.9,16.9,,22.6,-382,539,34,1036.12,23,29.4
"2017-03-23 11:45:21+00",11.9,13.9,,22.7,-285,440,55,1036.17,23.4,39.2
"2017-03-23 11:50:21+00",14.1,17.1,,23,-345,521,41,1036.3,23.9,49.6
"2017-03-23 11:55:21+00",14.2,16.2,,23.2,-308,537,32,1036.34,24.4,61.2
"2017-03-23 12:00:21+00",15.8,17.8,,23.4,-434,544,41,1036.47,24.7,71.6
"2017-03-23 12:05:21+00",16.6,19.6,,23.5,-456,578,44,1036.49,24.7,84
"2017-03-23 12:10:21+00",16.0,17.0,,23.6,-366,597,45,1036.4,24.9,96.1
"2017-03-23 12:15:21+00",16.6,18.6,,23.9,-382,622,29,1036.37,25.3,106.9
"2017-03-23 12:20:21+00",15.3,17.3,,24.1,-355,568,48,1036.46,25.6,119.6
"2017-03-23 12:25:21+00",18.0,22.0,,24.1,-441,660,27,1036.39,25.8,130.9
"2017-03-23 12:30:21+00",17.9,20.9,,24,-374,701,35,1036.4,25.9,142.7
"2017-03-23 12:35:21+00",14.4,17.4,,24.4,-342,536,46,1036.48,26.3,156
"2017-03-23 12:40:21+00",14.6,18.6,,24.5,-305,569,76,1036.52,26.6,166.4
"2017-03-23 12:45:21+00",15.1,17.1,,24.8,-232,610,17,1036.52,26.8,178.7
"2017-03-23 12:50:21+00",16.7,18.7,,25.2,-191,692,33,1036.57,27.3,188.1
"2017-03-23 12:55:21+00",14.7,16.7,,24.9,-151,630,11,1036.53,27.5,201.1
"2017-03-23 13:00:21+00",17.5,19.5,,25.2,-214,742,43,1036.56,27.6,211.6
"2017-03-23 13:05:21+00",14.4,17.4,,25.4,-186,608,39,1036.55,27.9,222.4
"2017-03-23 13:10:21+00",13.4,14.4,,25.8,-152,564,17,1036.54,28.3,232.2
"2017-03-23 13:15:21+00",12.8,16.8,,26.4,-114,552,61,1036.57,28.7,240.8
"2017-03-23 13:20:21+00",16.6,18.6,,26.7,-100,724,33,1036.7,29.2,253.6
"2017-03-23 13:25:21+00",15.4,18.4,,27,-192,657,41,1036.58,29.4,261.1
"2017-03-23 13:30:21+00",16.2,18.2,,27.1,-47,704,-3,1036.59,29.6,268.4
"2017-03-23 13:35:21+00",15.5,17.5,,27.2,-97,673,8,1036.67,29.9,277.8
"2017-03-23 13:40:21+00",16.2,18.2,,28.1,3,717,32,1036.59,30.7,285.8
"2017-03-23 13:45:21+00",13.7,16.7,,28,33,577,34,1036.66,30.7,293.3
"2017-03-23 13:50:21+00",16.8,19.8,,28.1,13,729,16,1036.67,30.9,289.5
"2017-03-23 13:55:21+00",13.7,17.7,,28.4,124,572,16,1036.64,31.2,308.1
"2017-03-23 14:00:21+00",13.1,17.1,,28.6,203,500,16,1036.65,31.6,304.5
"2017-03-23 14:05:21+00",12.2,13.2,,28.7,-2,533,15,1036.62,31.8,323.4
"2017-03-23 14:10:21+00",16.4,19.4,,29,125,712,-2,1036.68,32.1,327.9
"2017-03-23 14:15:21+00",14.6,17.6,,29.5,231,569,-4,1036.72,32.6,339.8
"2017-03-23 14:20:21+00",13.5,15.5,,29.3,109,580,-9,1036.74,32.7,345.9
"2017-03-23 14:25:21+00",12.1,16.1,,29.8,43,514,21,1036.72,33,353.8
"2017-03-23 14:30:21+00",11.4,14.4,,29.7,146,456,-14,1036.83,33.1,364.6
"2017-03-23 14:35:21+00",9.4,11.4,,30.1,70,388,1,1036.77,33.7,366.3
"2017-03-23 14:40:21+00",11.9,14.9,,30.4,68,516,6,1036.77,34,380.6
"2017-03-23 14:45:21+00",10.0,14.0,,30.6,160,373,16,1036.66,34.4,385.5
"2017-03-23 14:50:21+00",7.4,8.4,,30.7,122,274,4,1036.69,34.6,395.1
"2017-03-23 14:55:21+00",13.2,15.2,,31,43,564,12,1036.64,35,403.8
"2017-03-23 15:00:21+00",8.0,10.0,,30.8,35,338,-22,1036.77,34.9,410.5
"2017-03-23 15:05:21+00",7.6,9.6,,31.1,160,260,8,1036.61,35.1,417.5
"2017-03-23 15:10:21+00",10.3,13.3,,31.7,-55,442,30,1036.61,35.6,422.6
"2017-03-23 15:15:21+00",11.8,13.8,,32.1,-93,509,10,1036.53,36,432.7
"2017-03-23 15:20:21+00",7.7,8.7,,31.9,-18,331,3,1036.46,36,440.9
"2017-03-23 15:25:21+00",7.0,8.0,,32.7,-131,260,72,1036.41,36.7,447.2
"2017-03-23 15:30:21+00",7.6,8.6,,32.9,-160,287,15,1036.38,37.1,451.3
"2017-03-23 15:35:21+00",10.4,12.4,,33.6,-220,403,44,1036.36,37.4,458.6
"2017-03-23 15:40:21+00",8.5,11.5,,32.9,-228,293,-1,1036.43,37.1,466.2
"2017-03-23 15:45:21+00",6.3,7.3,,33.4,-238,126,36,1036.3,37.1,468.9
"2017-03-23 15:50:21+00",5.7,8.7,,34,-163,181,2,1036.19,37.5,477
"2017-03-23 15:55:21+00",4.5,6.5,,33.8,-14,183,-6,1036.13,37.5,483
"2017-03-23 16:00:21+00",8.1,10.1,,33.9,-315,149,66,1036.04,37.8,484.5
"2017-03-23 16:05:21+00",6.2,9.2,,33.9,-231,89,25,1035.94,37.8,488.5
"2017-03-23 16:10:21+00",9.9,10.9,,34.4,-349,276,27,1035.83,38,495.2
"2017-03-23 16:15:21+00",8.8,9.8,,34.6,-252,289,43,1035.89,37.8,501.2
"2017-03-23 16:20:21+00",10.0,11.0,,34.5,-431,108,52,1035.7,38.2,503.5
"2017-03-23 16:25:21+00",7.7,9.7,,34.7,-342,73,53,1035.59,38.4,505.4
"2017-03-23 16:30:21+00",9.8,11.8,,34.4,-415,-11,12,1035.53,38.5,504.9
"2017-03-23 16:35:21+00",8.2,11.2,,34.9,-351,-51,65,1035.42,38.8,489.1
"2017-03-23 16:40:21+00",9.2,11.2,,34.7,-396,-147,-3,1035.38,39.6,464.6
"2017-03-23 16:45:21+00",10.1,12.1,,34.7,-440,-11,47,1035.24,38.9,509.1
"2017-03-23 16:50:21+00",10.3,12.3,,35.2,-455,26,50,1035.19,38.8,512.3
"2017-03-23 16:55:21+00",9.2,11.2,,35.1,-341,209,63,1035.17,38.9,510.3
"2017-03-23 17:00:21+00",6.0,7.0,,35.3,-251,80,1,1035.13,38.9,511.1
"2017-03-23 17:05:21+00",9.0,12.0,,35.4,-377,67,9,1034.99,38.9,513.8
"2017-03-23 17:10:21+00",4.6,5.6,,35.6,-180,9,56,1034.87,39.1,505.8
"2017-03-23 17:15:21+00",10.5,13.5,,36.1,-446,11,25,1034.7,39.5,487.8
"2017-03-23 17:20:21+00",9.2,11.2,,36.1,-397,86,35,1034.73,39.7,493.1
"2017-03-23 17:25:21+00",9.0,12.0,,36.4,-389,26,72,1034.67,40.1,492.3
"2017-03-23 17:30:21+00",10.5,11.5,,36.6,-455,73,20,1034.5,40.5,486.7
"2017-03-23 17:35:21+00",10.8,13.8,,36.5,-465,-14,34,1034.4,40.1,482.6
"2017-03-23 17:40:21+00",14.0,17.0,,36.7,-606,-32,26,1034.45,39.8,477.7
"2017-03-23 17:45:21+00",14.4,15.4,,37.6,-632,-22,98,1034.31,40,468.5
"2017-03-23 17:50:21+00",14.2,17.2,,37.3,-600,-142,67,1034.34,40.2,466.8
"2017-03-23 17:55:21+00",14.8,16.8,,37.4,-657,42,28,1034.24,40.3,460.9
"2017-03-23 18:00:21+00",13.5,14.5,,37.7,-590,-24,40,1034.21,40.2,459.9
"2017-03-23 18:05:21+00",11.8,13.8,,37.7,-508,133,47,1034.05,40.6,466.7
"2017-03-23 18:10:21+00",11.1,14.1,,38,-470,-73,28,1033.97,40.7,462.2
"2017-03-23 18:15:21+00",13.3,16.3,,38.2,-576,-29,43,1033.95,41.3,460.7
"2017-03-23 18:20:21+00",12.6,13.6,,38.1,-548,-24,10,1033.91,41,455
"2017-03-23 18:25:21+00",8.9,9.9,,38.7,-368,51,65,1033.91,41.5,452.4
"2017-03-23 18:30:21+00",11.6,13.6,,38.8,-484,-138,0,1033.77,41.4,446.2
"2017-03-23 18:35:21+00",12.6,15.6,,38.9,-548,70,56,1033.84,41.9,441.5
"2017-03-23 18:40:21+00",11.1,13.1,,39.2,-454,-237,48,1033.75,41.9,434.6
"2017-03-23 18:45:21+00",12.2,13.2,,39.8,-516,-101,74,1033.75,42.7,428.7
"2017-03-23 18:50:21+00",8.3,10.3,,38.7,93,-340,-2,1033.76,41.8,411.4
"2017-03-23 18:55:21+00",14.6,17.6,,38.6,-455,-457,37,1033.59,41.4,409.4
"2017-03-23 19:00:21+00",14.6,17.6,,38.1,-281,-558,-19,1033.63,40.9,403.6
"2017-03-23 19:05:21+00",14.2,17.2,,38.7,-263,-560,-1,1033.61,41,399.5
"2017-03-23 19:10:21+00",18.4,21.4,,38.4,-425,-693,17,1033.61,41.1,390.2
"2017-03-23 19:15:21+00",13.5,17.5,,37.8,-205,-552,48,1033.54,40.1,382.2
"2017-03-23 19:20:21+00",18.4,20.4,,37.1,-463,-688,19,1033.59,39.7,376.8
"2017-03-23 19:25:21+00",17.6,24.6,,36.6,-276,-699,9,1033.6,38.9,367.4
"2017-03-23 19:30:21+00",17.0,19.0,,37.4,-427,-640,42,1033.6,39.3,365.1
"2017-03-23 19:35:21+00",17.3,21.3,,37.4,-274,-702,-6,1033.55,39.3,352.9
"2017-03-23 19:40:21+00",20.6,22.6,,37.1,-352,-810,-9,1033.54,39.2,350.1
"2017-03-23 19:45:21+00",21.3,24.3,,37.2,-360,-843,-5,1033.48,39.5,342.4
"2017-03-23 19:50:21+00",19.6,23.6,,37.3,-409,-757,-7,1033.45,39.3,335.2
"2017-03-23 19:55:21+00",20.6,23.6,,37,-445,-782,-15,1033.49,38.9,327.2
"2017-03-23 20:00:21+00",19.7,22.7,,37.3,-352,-770,-11,1033.41,39.2,323.1
"2017-03-23 20:05:21+00",17.2,21.2,,37.2,-306,-667,6,1033.32,39.1,313.3
"2017-03-23 20:10:21+00",18.8,20.8,,37.7,-303,-752,1,1033.25,39.5,309.3
"2017-03-23 20:15:21+00",18.6,23.6,,37.9,-268,-762,6,1033.13,39.7,300.5
"2017-03-23 20:20:21+00",16.9,19.9,,38.4,-328,-658,9,1033.07,40.1,286.1
"2017-03-23 20:25:21+00",18.4,20.4,,38.4,-455,-683,12,1032.94,40.2,283.6
"2017-03-23 20:30:21+00",17.7,19.7,,38.2,-462,-643,-6,1032.87,40.1,276.5
"2017-03-23 20:35:21+00",18.0,20.0,,38.5,-404,-684,2,1032.86,40.4,271.1
"2017-03-23 20:40:21+00",14.8,18.8,,39,-351,-566,51,1032.81,40.6,261
"2017-03-23 20:45:21+00",18.6,21.6,,39.1,-292,-743,-9,1032.77,40.9,252.8
"2017-03-23 20:50:21+00",17.4,20.4,,39.4,-278,-697,-12,1032.72,40.9,245
"2017-03-23 20:55:21+00",14.6,18.6,,39.8,-242,-581,23,1032.69,41.1,235.5
"2017-03-23 21:00:21+00",16.9,20.9,,39.8,-276,-682,0,1032.66,41.2,228.1
"2017-03-23 21:05:21+00",18.0,20.0,,39.6,-392,-679,-18,1032.72,41.1,219.5
"2017-03-23 21:10:21+00",13.4,20.4,,39.9,-161,-528,19,1032.65,41.4,209.9
"2017-03-23 21:15:21+00",18.0,21.0,,39.3,-247,-727,-17,1032.55,40.9,195.8
"2017-03-23 21:20:21+00",17.0,19.0,,39.4,-264,-680,-6,1032.53,40.8,187.5
"2017-03-23 21:25:21+00",17.3,20.3,,39.7,-252,-693,-10,1032.55,41,178.6
"2017-03-23 21:30:21+00",15.3,18.3,,39.8,-169,-626,-11,1032.52,40.9,167.5
"2017-03-23 21:35:21+00",15.7,19.7,,39.9,-218,-641,1,1032.48,40.9,155.3
"2017-03-23 21:40:21+00",14.7,18.7,,39.8,-142,-615,1,1032.58,40.8,144.2
"2017-03-23 21:45:21+00",13.6,17.6,,40.1,-285,-531,7,1032.49,41,131.6
"2017-03-23 21:50:21+00",13.7,16.7,,40.6,-168,-564,-11,1032.47,41.4,122.3
"2017-03-23 21:55:21+00",9.9,10.9,,40.9,-196,-376,-14,1032.47,41.9,108.9
"2017-03-23 22:00:21+00",7.5,10.5,,41.2,-226,-250,-2,1032.53,42.2,97.7
"2017-03-23 22:05:21+00",10.2,12.2,,41.2,-316,-313,9,1032.46,42.6,87.7
"2017-03-23 22:10:21+00",7.7,9.7,,41.4,-288,-155,7,1032.47,43.2,75.8
"2017-03-23 22:15:21+00",12.5,13.5,,41.4,-528,-153,23,1032.56,43.6,60.8
"2017-03-23 22:20:21+00",9.3,10.3,,41.8,-375,-190,30,1032.58,43.8,51.1
"2017-03-23 22:25:21+00",9.5,11.5,,42,-400,114,34,1032.64,43.9,40.5
"2017-03-23 22:30:21+00",12.0,13.0,,42,-507,166,37,1032.7,43.6,29.9
"2017-03-23 22:35:21+00",14.4,15.4,,41.9,-626,167,34,1032.81,43,22.9
"2017-03-23 22:40:21+00",11.6,12.6,,41.7,-496,175,42,1032.95,42.6,11.8
"2017-03-23 22:45:21+00",13.8,15.8,,41.7,-572,246,33,1032.88,42.2,0.2
"2017-03-23 22:50:21+00",13.8,14.8,,41.5,-593,188,33,1032.98,41.7,0
"2017-03-23 22:55:21+00",12.0,13.0,,41.4,-518,145,33,1033.06,41.3,0
"2017-03-23 23:00:21+00",11.3,13.3,,41.2,-478,159,29,1033.14,41.1,0
"2017-03-23 23:05:21+00",10.5,11.5,,41.2,-455,121,37,1033.15,40.9,0
"2017-03-23 23:10:21+00",12.2,13.2,,41.3,-514,186,36,1033.21,40.6,0
"2017-03-23 23:15:21+00",11.9,12.9,,41.2,-497,215,34,1033.16,40.3,0
"2017-03-23 23:20:21+00",12.2,13.2,,41.2,-502,211,31,1033.21,40.1,0
"2017-03-23 23:25:21+00",11.0,12.0,,41,-455,186,26,1033.21,40,0
"2017-03-23 23:30:21+00",10.0,11.0,,40.9,-441,105,19,1033.19,39.9,0
"2017-03-23 23:35:21+00",10.0,11.0,,40.8,-437,96,23,1033.26,39.8,0
"2017-03-23 23:40:21+00",9.6,10.6,,40.5,-413,84,23,1033.35,39.6,0
"2017-03-23 23:45:21+00",8.4,8.4,,40.2,-370,36,17,1033.44,39.2,0
"2017-03-23 23:50:21+00",8.2,9.2,,40.1,-356,63,22,1033.38,38.6,0
"2017-03-23 23:55:21+00",8.3,9.3,,40.1,-365,64,18,1033.39,38.3,0
